Time,TemperatureF,DewpointF,PressureIn,WindDirection,WindDirectionDegrees,WindSpeedMPH,WindSpeedGustMPH,Humidity,HourlyPrecipIn,Conditions,Clouds,dailyrainin,SoftwareType,DateUTC
2013-07-04 00:01:00,75.8,71.7,30.07,WNW,288,1.0,2.0,87,0.00,,,0.00,Wunderground v.1.12,2013-07-04 04:01:00,
2013-07-04 00:03:00,75.8,71.7,30.07,WNW,288,0.0,2.0,87,0.00,,,0.00,Wunderground v.1.12,2013-07-04 04:03:00,
2013-07-04 00:05:00,75.8,71.7,30.07,WNW,288,0.0,1.0,87,0.00,,,0.00,Wunderground v.1.12,2013-07-04 04:05:00,
2013-07-04 00:11:00,75.8,72.0,30.07,WNW,287,0.0,0.0,88,0.00,,,0.00,Wunderground v.1.12,2013-07-04 04:11:00,
2013-07-04 00:16:00,75.8,72.0,30.07,WNW,287,0.0,0.0,88,0.00,,,0.00,Wunderground v.1.12,2013-07-04 04:16:00,
2013-07-04 00:21:00,75.8,71.7,30.07,WNW,286,1.0,2.0,87,0.00,,,0.00,Wunderground v.1.12,2013-07-04 04:21:00,
2013-07-04 00:26:00,75.8,71.7,30.07,WNW,286,1.0,1.0,87,0.00,,,0.00,Wunderground v.1.12,2013-07-04 04:26:00,
2013-07-04 00:32:00,75.8,72.0,30.07,WNW,286,1.0,3.0,88,0.00,,,0.00,Wunderground v.1.12,2013-07-04 04:32:00,
2013-07-04 00:38:00,75.8,72.0,30.07,WNW,285,1.0,2.0,88,0.00,,,0.00,Wunderground v.1.12,2013-07-04 04:38:00,
2013-07-04 00:43:00,75.8,72.0,30.07,West,281,1.0,3.0,88,0.00,,,0.00,Wunderground v.1.12,2013-07-04 04:43:00,
2013-07-04 00:48:00,76.0,72.2,30.07,West,279,1.0,3.0,88,0.00,,,0.00,Wunderground v.1.12,2013-07-04 04:48:00,
2013-07-04 00:53:00,76.0,71.8,30.07,WNW,289,1.0,6.0,87,0.00,,,0.00,Wunderground v.1.12,2013-07-04 04:53:00,
2013-07-04 00:59:00,75.8,72.0,30.07,WNW,289,2.0,2.0,88,0.00,,,0.00,Wunderground v.1.12,2013-07-04 04:59:00,
2013-07-04 01:05:00,75.8,72.0,30.07,WNW,288,1.0,1.0,88,0.00,,,0.00,Wunderground v.1.12,2013-07-04 05:05:00,
2013-07-04 01:10:00,75.8,72.0,30.07,WNW,288,0.0,0.0,88,0.00,,,0.00,Wunderground v.1.12,2013-07-04 05:10:00,
2013-07-04 01:15:00,75.8,72.0,30.07,West,271,1.0,4.0,88,0.00,,,0.00,Wunderground v.1.12,2013-07-04 05:15:00,
2013-07-04 01:20:00,75.8,72.0,30.07,West,270,2.0,4.0,88,0.00,,,0.00,Wunderground v.1.12,2013-07-04 05:20:00,
2013-07-04 01:26:00,75.8,72.0,30.07,West,271,1.0,2.0,88,0.00,,,0.00,Wunderground v.1.12,2013-07-04 05:26:00,
2013-07-04 01:32:00,75.8,72.0,30.07,West,268,2.0,3.0,88,0.00,,,0.00,Wunderground v.1.12,2013-07-04 05:32:00,
2013-07-04 01:38:00,75.6,71.8,30.07,WSW,248,2.0,6.0,88,0.00,,,0.00,Wunderground v.1.12,2013-07-04 05:38:00,
2013-07-04 01:46:00,75.6,72.1,30.07,SW,236,1.0,2.0,89,0.00,,,0.00,Wunderground v.1.12,2013-07-04 05:46:00,
2013-07-04 01:53:00,75.4,71.9,30.07,West,259,2.0,4.0,89,0.00,,,0.00,Wunderground v.1.12,2013-07-04 05:53:00,
2013-07-04 01:58:00,75.4,71.9,30.07,WSW,254,2.0,3.0,89,0.00,,,0.00,Wunderground v.1.12,2013-07-04 05:58:00,
2013-07-04 02:04:00,75.3,71.8,30.07,WSW,255,2.0,3.0,89,0.00,,,0.00,Wunderground v.1.12,2013-07-04 06:04:00,
2013-07-04 02:09:00,75.1,71.6,30.07,WSW,255,1.0,1.0,89,0.00,,,0.00,Wunderground v.1.12,2013-07-04 06:09:00,
2013-07-04 02:16:00,75.1,72.0,30.07,WSW,254,1.0,3.0,90,0.00,,,0.00,Wunderground v.1.12,2013-07-04 06:16:00,
2013-07-04 02:21:00,75.1,72.0,30.07,WSW,254,2.0,3.0,90,0.00,,,0.00,Wunderground v.1.12,2013-07-04 06:21:00,
2013-07-04 02:26:00,75.1,72.0,30.07,WSW,253,2.0,2.0,90,0.00,,,0.00,Wunderground v.1.12,2013-07-04 06:26:00,
2013-07-04 02:31:00,74.9,71.8,30.07,WSW,253,1.0,2.0,90,0.00,,,0.00,Wunderground v.1.12,2013-07-04 06:31:00,
2013-07-04 02:36:00,74.9,71.8,30.07,WSW,254,1.0,2.0,90,0.00,,,0.00,Wunderground v.1.12,2013-07-04 06:36:00,
2013-07-04 02:41:00,74.7,71.9,30.07,WSW,254,1.0,2.0,91,0.00,,,0.00,Wunderground v.1.12,2013-07-04 06:41:00,
2013-07-04 02:48:00,74.7,71.9,30.06,WSW,254,1.0,3.0,91,0.00,,,0.00,Wunderground v.1.12,2013-07-04 06:48:00,
2013-07-04 02:53:00,74.7,71.9,30.06,WSW,254,1.0,1.0,91,0.00,,,0.00,Wunderground v.1.12,2013-07-04 06:53:00,
2013-07-04 02:58:00,74.6,71.8,30.06,WSW,254,1.0,1.0,91,0.00,,,0.00,Wunderground v.1.12,2013-07-04 06:58:00,
2013-07-04 03:03:00,74.6,71.8,30.06,WSW,254,0.0,1.0,91,0.00,,,0.00,Wunderground v.1.12,2013-07-04 07:03:00,
2013-07-04 03:09:00,74.4,71.9,30.06,WSW,254,0.0,2.0,92,0.00,,,0.00,Wunderground v.1.12,2013-07-04 07:09:00,
2013-07-04 03:15:00,74.4,71.9,30.06,WSW,254,0.0,0.0,92,0.00,,,0.00,Wunderground v.1.12,2013-07-04 07:15:00,
2013-07-04 03:20:00,74.2,71.7,30.06,WSW,254,0.0,0.0,92,0.00,,,0.00,Wunderground v.1.12,2013-07-04 07:20:00,
2013-07-04 03:25:00,74.0,71.5,30.06,WSW,254,0.0,0.0,92,0.00,,,0.00,Wunderground v.1.12,2013-07-04 07:25:00,
2013-07-04 03:31:00,74.0,71.5,30.06,WSW,254,0.0,0.0,92,0.00,,,0.00,Wunderground v.1.12,2013-07-04 07:31:00,
2013-07-04 03:36:00,74.0,71.5,30.06,WSW,254,0.0,3.0,92,0.00,,,0.00,Wunderground v.1.12,2013-07-04 07:36:00,
2013-07-04 03:42:00,73.9,71.4,30.06,WSW,254,0.0,0.0,92,0.00,,,0.00,Wunderground v.1.12,2013-07-04 07:42:00,
2013-07-04 03:48:00,73.9,71.7,30.06,WSW,254,0.0,0.0,93,0.00,,,0.00,Wunderground v.1.12,2013-07-04 07:48:00,
2013-07-04 03:53:00,73.7,71.5,30.06,WSW,254,0.0,1.0,93,0.00,,,0.00,Wunderground v.1.12,2013-07-04 07:53:00,
2013-07-04 03:58:00,73.7,71.5,30.06,WSW,254,0.0,0.0,93,0.00,,,0.00,Wunderground v.1.12,2013-07-04 07:58:00,
2013-07-04 04:03:00,73.5,71.4,30.06,WSW,254,0.0,0.0,93,0.00,,,0.00,Wunderground v.1.12,2013-07-04 08:03:00,
2013-07-04 04:08:00,73.5,71.4,30.06,WSW,254,0.0,1.0,93,0.00,,,0.00,Wunderground v.1.12,2013-07-04 08:08:00,
2013-07-04 04:13:00,73.5,71.7,30.06,WSW,254,0.0,0.0,94,0.00,,,0.00,Wunderground v.1.12,2013-07-04 08:13:00,
2013-07-04 04:20:00,73.5,71.7,30.06,WSW,254,1.0,1.0,94,0.00,,,0.00,Wunderground v.1.12,2013-07-04 08:20:00,
2013-07-04 04:25:00,73.5,71.7,30.06,WSW,254,1.0,1.0,94,0.00,,,0.00,Wunderground v.1.12,2013-07-04 08:25:00,
2013-07-04 04:30:00,73.3,71.5,30.06,WSW,254,1.0,3.0,94,0.00,,,0.00,Wunderground v.1.12,2013-07-04 08:30:00,
2013-07-04 04:36:00,73.3,71.5,30.07,WSW,257,1.0,1.0,94,0.00,,,0.00,Wunderground v.1.12,2013-07-04 08:36:00,
2013-07-04 04:41:00,73.3,71.5,30.07,WSW,257,1.0,2.0,94,0.00,,,0.00,Wunderground v.1.12,2013-07-04 08:41:00,
2013-07-04 04:48:00,73.3,71.5,30.07,WSW,257,1.0,2.0,94,0.00,,,0.00,Wunderground v.1.12,2013-07-04 08:48:00,
2013-07-04 04:53:00,73.3,71.5,30.07,WSW,257,1.0,1.0,94,0.00,,,0.00,Wunderground v.1.12,2013-07-04 08:53:00,
2013-07-04 04:58:00,73.2,71.4,30.07,WSW,254,1.0,3.0,94,0.00,,,0.00,Wunderground v.1.12,2013-07-04 08:58:00,
2013-07-04 05:04:00,73.2,71.4,30.07,WSW,254,2.0,2.0,94,0.00,,,0.00,Wunderground v.1.12,2013-07-04 09:04:00,
2013-07-04 05:09:00,73.2,71.7,30.07,WSW,255,2.0,2.0,95,0.00,,,0.00,Wunderground v.1.12,2013-07-04 09:09:00,
2013-07-04 05:14:00,73.2,71.4,30.07,WSW,249,2.0,2.0,94,0.00,,,0.00,Wunderground v.1.12,2013-07-04 09:14:00,
2013-07-04 05:21:00,73.2,71.7,30.08,WSW,249,2.0,2.0,95,0.00,,,0.00,Wunderground v.1.12,2013-07-04 09:21:00,
2013-07-04 05:26:00,73.0,71.5,30.08,WSW,249,2.0,2.0,95,0.00,,,0.00,Wunderground v.1.12,2013-07-04 09:26:00,
2013-07-04 05:33:00,73.2,71.4,30.07,WSW,248,1.0,6.0,94,0.00,,,0.00,Wunderground v.1.12,2013-07-04 09:33:00,
2013-07-04 05:38:00,73.0,71.5,30.08,WSW,249,1.0,3.0,95,0.00,,,0.00,Wunderground v.1.12,2013-07-04 09:38:00,
2013-07-04 05:43:00,73.0,71.5,30.08,WSW,249,0.0,1.0,95,0.00,,,0.00,Wunderground v.1.12,2013-07-04 09:43:00,
2013-07-04 05:48:00,73.2,71.7,30.08,WSW,249,0.0,0.0,95,0.00,,,0.00,Wunderground v.1.12,2013-07-04 09:48:00,
2013-07-04 05:54:00,73.2,71.7,30.08,WSW,249,0.0,1.0,95,0.00,,,0.00,Wunderground v.1.12,2013-07-04 09:54:00,
2013-07-04 05:59:00,73.2,71.7,30.08,WSW,249,1.0,1.0,95,0.00,,,0.00,Wunderground v.1.12,2013-07-04 09:59:00,
2013-07-04 06:05:00,73.3,71.8,30.08,WSW,249,0.0,0.0,95,0.00,,,0.00,Wunderground v.1.12,2013-07-04 10:05:00,
2013-07-04 06:10:00,73.3,71.8,30.08,WSW,249,1.0,1.0,95,0.00,,,0.00,Wunderground v.1.12,2013-07-04 10:10:00,
2013-07-04 06:16:00,73.5,71.7,30.08,WSW,249,1.0,3.0,94,0.00,,,0.00,Wunderground v.1.12,2013-07-04 10:16:00,
2013-07-04 06:22:00,73.7,71.9,30.08,WSW,249,2.0,2.0,94,0.00,,,0.00,Wunderground v.1.12,2013-07-04 10:22:00,
2013-07-04 06:28:00,73.9,72.1,30.08,WSW,249,1.0,4.0,94,0.00,,,0.00,Wunderground v.1.12,2013-07-04 10:28:00,
2013-07-04 06:33:00,73.2,71.7,30.08,WSW,248,0.0,4.0,95,0.00,,,0.00,Wunderground v.1.12,2013-07-04 10:33:00,
2013-07-04 06:38:00,74.2,72.0,30.08,WSW,250,2.0,4.0,93,0.00,,,0.00,Wunderground v.1.12,2013-07-04 10:38:00,
2013-07-04 06:44:00,74.4,71.9,30.08,WSW,252,2.0,5.0,92,0.00,,,0.00,Wunderground v.1.12,2013-07-04 10:44:00,
2013-07-04 06:49:00,74.7,71.9,30.09,WSW,252,3.0,3.0,91,0.00,,,0.00,Wunderground v.1.12,2013-07-04 10:49:00,
2013-07-04 06:55:00,75.1,72.0,30.09,WSW,256,3.0,4.0,90,0.00,,,0.00,Wunderground v.1.12,2013-07-04 10:55:00,
2013-07-04 07:01:00,75.3,71.8,30.09,WSW,241,3.0,5.0,89,0.00,,,0.00,Wunderground v.1.12,2013-07-04 11:01:00,
2013-07-04 07:08:00,75.6,71.8,30.09,WSW,258,4.0,5.0,88,0.00,,,0.00,Wunderground v.1.12,2013-07-04 11:08:00,
2013-07-04 07:13:00,76.0,72.2,30.09,WSW,249,3.0,3.0,88,0.00,,,0.00,Wunderground v.1.12,2013-07-04 11:13:00,
2013-07-04 07:18:00,76.1,71.9,30.09,West,266,2.0,5.0,87,0.00,,,0.00,Wunderground v.1.12,2013-07-04 11:18:00,
2013-07-04 07:24:00,76.5,72.0,30.09,WSW,248,3.0,5.0,86,0.00,,,0.00,Wunderground v.1.12,2013-07-04 11:24:00,
2013-07-04 07:30:00,76.7,72.2,30.09,WSW,249,3.0,3.0,86,0.00,,,0.00,Wunderground v.1.12,2013-07-04 11:30:00,
2013-07-04 07:36:00,77.0,72.1,30.09,WNW,291,2.0,3.0,85,0.00,,,0.00,Wunderground v.1.12,2013-07-04 11:36:00,
2013-07-04 07:43:00,77.4,72.2,30.09,WNW,288,3.0,3.0,84,0.00,,,0.00,Wunderground v.1.12,2013-07-04 11:43:00,
2013-07-04 07:48:00,77.6,72.4,30.10,West,275,2.0,3.0,84,0.00,,,0.00,Wunderground v.1.12,2013-07-04 11:48:00,
2013-07-04 07:53:00,77.7,72.1,30.10,West,266,2.0,3.0,83,0.00,,,0.00,Wunderground v.1.12,2013-07-04 11:53:00,
2013-07-04 07:58:00,78.1,72.5,30.10,West,266,1.0,2.0,83,0.00,,,0.00,Wunderground v.1.12,2013-07-04 11:58:00,
2013-07-04 08:03:00,76.8,72.3,30.09,WSW,248,3.0,10.0,86,0.00,,,0.00,Wunderground v.1.12,2013-07-04 12:03:00,
2013-07-04 08:05:00,78.3,72.3,30.09,West,266,2.0,3.0,82,0.00,,,0.00,Wunderground v.1.12,2013-07-04 12:05:00,
2013-07-04 08:10:00,78.6,72.3,30.09,West,277,3.0,6.0,81,0.00,,,0.00,Wunderground v.1.12,2013-07-04 12:10:00,
2013-07-04 08:16:00,79.0,72.3,30.10,West,279,3.0,5.0,80,0.00,,,0.00,Wunderground v.1.12,2013-07-04 12:16:00,
2013-07-04 08:21:00,79.2,72.1,30.10,West,281,3.0,5.0,79,0.00,,,0.00,Wunderground v.1.12,2013-07-04 12:21:00,
2013-07-04 08:29:00,79.6,72.5,30.10,WSW,237,3.0,8.0,79,0.00,,,0.00,Wunderground v.1.12,2013-07-04 12:29:00,
2013-07-04 08:34:00,79.8,72.3,30.10,West,263,3.0,3.0,78,0.00,,,0.00,Wunderground v.1.12,2013-07-04 12:34:00,
2013-07-04 08:40:00,80.1,72.6,30.10,NW,304,3.0,4.0,78,0.00,,,0.00,Wunderground v.1.12,2013-07-04 12:40:00,
2013-07-04 08:46:00,80.5,73.0,30.10,West,280,2.0,3.0,78,0.00,,,0.00,Wunderground v.1.12,2013-07-04 12:46:00,
2013-07-04 08:51:00,80.7,72.4,30.10,West,269,3.0,12.0,76,0.00,,,0.00,Wunderground v.1.12,2013-07-04 12:51:00,
2013-07-04 08:58:00,80.9,72.6,30.10,West,272,4.0,5.0,76,0.00,,,0.00,Wunderground v.1.12,2013-07-04 12:58:00,
2013-07-04 09:06:00,79.8,72.7,30.10,West,270,3.0,9.0,79,0.00,,,0.00,Wunderground v.1.12,2013-07-04 13:06:00,
2013-07-04 09:11:00,81.4,72.3,30.09,West,259,4.0,4.0,74,0.00,,,0.00,Wunderground v.1.12,2013-07-04 13:11:00,
2013-07-04 09:18:00,81.8,72.3,30.09,WSW,252,4.0,6.0,73,0.00,,,0.00,Wunderground v.1.12,2013-07-04 13:18:00,
2013-07-04 09:23:00,82.0,72.9,30.09,WSW,246,4.0,4.0,74,0.00,,,0.00,Wunderground v.1.12,2013-07-04 13:23:00,
2013-07-04 09:29:00,82.4,72.9,30.09,WNW,288,4.0,9.0,73,0.00,,,0.00,Wunderground v.1.12,2013-07-04 13:29:00,
2013-07-04 09:34:00,82.8,72.8,30.09,SW,227,4.0,10.0,72,0.00,,,0.00,Wunderground v.1.12,2013-07-04 13:34:00,
2013-07-04 09:39:00,83.0,73.0,30.09,WNW,291,4.0,5.0,72,0.00,,,0.00,Wunderground v.1.12,2013-07-04 13:39:00,
2013-07-04 09:45:00,83.2,72.8,30.09,WSW,258,4.0,4.0,71,0.00,,,0.00,Wunderground v.1.12,2013-07-04 13:45:00,
2013-07-04 09:50:00,83.2,72.8,30.09,WNW,297,4.0,5.0,71,0.00,,,0.00,Wunderground v.1.12,2013-07-04 13:50:00,
2013-07-04 09:55:00,83.6,73.2,30.09,WNW,291,4.0,4.0,71,0.00,,,0.00,Wunderground v.1.12,2013-07-04 13:55:00,
2013-07-04 10:01:00,83.8,72.5,30.09,WSW,237,3.0,3.0,69,0.00,,,0.00,Wunderground v.1.12,2013-07-04 14:01:00,
2013-07-04 10:08:00,84.1,73.7,30.09,West,271,3.0,7.0,71,0.00,,,0.00,Wunderground v.1.12,2013-07-04 14:08:00,
2013-07-04 10:13:00,84.5,73.2,30.09,WSW,248,4.0,6.0,69,0.00,,,0.00,Wunderground v.1.12,2013-07-04 14:13:00,
2013-07-04 10:18:00,84.3,72.6,30.09,West,270,4.0,10.0,68,0.00,,,0.00,Wunderground v.1.12,2013-07-04 14:18:00,
2013-07-04 10:23:00,84.5,72.8,30.09,West,272,5.0,5.0,68,0.00,,,0.00,Wunderground v.1.12,2013-07-04 14:23:00,
2013-07-04 10:28:00,84.9,74.0,30.09,WNW,296,4.0,5.0,70,0.00,,,0.00,Wunderground v.1.12,2013-07-04 14:28:00,
2013-07-04 10:34:00,84.9,72.7,30.08,WNW,291,3.0,4.0,67,0.00,,,0.00,Wunderground v.1.12,2013-07-04 14:34:00,
2013-07-04 10:40:00,85.3,74.0,30.08,WNW,288,5.0,5.0,69,0.00,,,0.00,Wunderground v.1.12,2013-07-04 14:40:00,
2013-07-04 10:44:00,85.3,72.6,30.08,WNW,291,4.0,4.0,66,0.00,,,0.00,Wunderground v.1.12,2013-07-04 14:44:00,
2013-07-04 10:51:00,85.9,73.2,30.08,WNW,290,2.0,5.0,66,0.00,,,0.00,Wunderground v.1.12,2013-07-04 14:51:00,
2013-07-04 10:56:00,85.9,73.2,30.08,WSW,248,3.0,6.0,66,0.00,,,0.00,Wunderground v.1.12,2013-07-04 14:56:00,
2013-07-04 11:03:00,84.9,72.7,30.08,WSW,248,4.0,11.0,67,0.00,,,0.00,Wunderground v.1.12,2013-07-04 15:03:00,
2013-07-04 11:08:00,86.5,73.3,30.08,West,280,3.0,5.0,65,0.00,,,0.00,Wunderground v.1.12,2013-07-04 15:08:00,
2013-07-04 11:13:00,86.5,72.9,30.08,West,263,3.0,6.0,64,0.00,,,0.00,Wunderground v.1.12,2013-07-04 15:13:00,
2013-07-04 11:18:00,86.5,72.9,30.08,WNW,284,4.0,6.0,64,0.00,,,0.00,Wunderground v.1.12,2013-07-04 15:18:00,
2013-07-04 11:24:00,87.2,73.1,30.08,WNW,293,3.0,5.0,63,0.00,,,0.00,Wunderground v.1.12,2013-07-04 15:24:00,
2013-07-04 11:29:00,87.0,73.3,30.08,West,260,3.0,3.0,64,0.00,,,0.00,Wunderground v.1.12,2013-07-04 15:29:00,
2013-07-04 11:35:00,87.2,72.6,30.07,WNW,302,3.0,10.0,62,0.00,,,0.00,Wunderground v.1.12,2013-07-04 15:35:00,
2013-07-04 11:41:00,87.0,72.9,30.07,WNW,286,4.0,6.0,63,0.00,,,0.00,Wunderground v.1.12,2013-07-04 15:41:00,
2013-07-04 11:46:00,87.6,73.0,30.07,WNW,282,3.0,4.0,62,0.00,,,0.00,Wunderground v.1.12,2013-07-04 15:46:00,
2013-07-04 11:51:00,87.8,73.2,30.07,WNW,282,3.0,3.0,62,0.00,,,0.00,Wunderground v.1.12,2013-07-04 15:51:00,
2013-07-04 11:57:00,87.8,73.6,30.07,West,266,3.0,5.0,63,0.00,,,0.00,Wunderground v.1.12,2013-07-04 15:57:00,
2013-07-04 12:03:00,87.0,71.9,30.07,WSW,248,3.0,12.0,61,0.00,,,0.00,Wunderground v.1.12,2013-07-04 16:03:00,
2013-07-04 12:08:00,88.2,72.6,30.07,West,269,3.0,6.0,60,0.00,,,0.00,Wunderground v.1.12,2013-07-04 16:08:00,
2013-07-04 12:13:00,88.0,73.3,30.07,WSW,250,3.0,3.0,62,0.00,,,0.00,Wunderground v.1.12,2013-07-04 16:13:00,
2013-07-04 12:18:00,88.4,72.7,30.06,West,273,2.0,5.0,60,0.00,,,0.00,Wunderground v.1.12,2013-07-04 16:18:00,
2013-07-04 12:23:00,89.3,74.1,30.06,West,267,2.0,4.0,61,0.00,,,0.00,Wunderground v.1.12,2013-07-04 16:23:00,
2013-07-04 12:28:00,88.6,73.4,30.06,WSW,249,3.0,7.0,61,0.00,,,0.00,Wunderground v.1.12,2013-07-04 16:28:00,
2013-07-04 12:34:00,88.8,73.6,30.06,WNW,285,3.0,5.0,61,0.00,,,0.00,Wunderground v.1.12,2013-07-04 16:34:00,
2013-07-04 12:39:00,88.8,73.6,30.06,WNW,283,2.0,4.0,61,0.00,,,0.00,Wunderground v.1.12,2013-07-04 16:39:00,
2013-07-04 12:45:00,88.6,72.9,30.06,NW,308,3.0,7.0,60,0.00,,,0.00,Wunderground v.1.12,2013-07-04 16:45:00,
2013-07-04 12:51:00,88.8,72.6,30.06,SW,234,5.0,7.0,59,0.00,,,0.00,Wunderground v.1.12,2013-07-04 16:51:00,
2013-07-04 12:58:00,88.4,72.7,30.06,WNW,298,4.0,5.0,60,0.00,,,0.00,Wunderground v.1.12,2013-07-04 16:58:00,
2013-07-04 13:03:00,88.8,73.1,30.05,SE,144,3.0,6.0,60,0.00,,,0.00,Wunderground v.1.12,2013-07-04 17:03:00,
2013-07-04 13:08:00,89.9,74.2,30.05,WNW,296,2.0,4.0,60,0.00,,,0.00,Wunderground v.1.12,2013-07-04 17:08:00,
2013-07-04 13:13:00,90.7,73.9,30.05,SSW,200,1.0,5.0,58,0.00,,,0.00,Wunderground v.1.12,2013-07-04 17:13:00,
2013-07-04 13:19:00,89.7,73.5,30.05,WNW,297,3.0,4.0,59,0.00,,,0.00,Wunderground v.1.12,2013-07-04 17:19:00,
2013-07-04 13:25:00,89.9,72.6,30.05,WSW,248,3.0,4.0,57,0.00,,,0.00,Wunderground v.1.12,2013-07-04 17:25:00,
2013-07-04 13:31:00,89.5,72.3,30.05,WNW,290,4.0,7.0,57,0.00,,,0.00,Wunderground v.1.12,2013-07-04 17:31:00,
2013-07-04 13:36:00,89.7,72.4,30.05,West,265,4.0,4.0,57,0.00,,,0.00,Wunderground v.1.12,2013-07-04 17:36:00,
2013-07-04 13:43:00,89.9,71.0,30.05,West,277,4.0,7.0,54,0.00,,,0.00,Wunderground v.1.12,2013-07-04 17:43:00,
2013-07-04 13:48:00,91.0,74.7,30.03,SSE,148,3.0,3.0,59,0.00,,,0.00,Wunderground v.1.12,2013-07-04 17:48:00,
2013-07-04 13:53:00,91.0,72.6,30.03,WNW,288,2.0,5.0,55,0.00,,,0.00,Wunderground v.1.12,2013-07-04 17:53:00,
2013-07-04 13:58:00,90.7,73.4,30.03,WSW,257,4.0,5.0,57,0.00,,,0.00,Wunderground v.1.12,2013-07-04 17:58:00,
2013-07-04 14:03:00,89.9,72.6,30.03,WSW,258,3.0,7.0,57,0.00,,,0.00,Wunderground v.1.12,2013-07-04 18:03:00,
2013-07-04 14:09:00,90.3,74.0,30.03,WNW,300,3.0,3.0,59,0.00,,,0.00,Wunderground v.1.12,2013-07-04 18:09:00,
2013-07-04 14:14:00,90.3,72.5,30.03,West,277,2.0,3.0,56,0.00,,,0.00,Wunderground v.1.12,2013-07-04 18:14:00,
2013-07-04 14:21:00,91.4,74.5,30.02,WSW,248,2.0,3.0,58,0.00,,,0.00,Wunderground v.1.12,2013-07-04 18:21:00,
2013-07-04 14:26:00,91.4,73.0,30.02,SW,236,2.0,3.0,55,0.00,,,0.00,Wunderground v.1.12,2013-07-04 18:26:00,
2013-07-04 14:33:00,90.1,72.3,30.03,West,270,3.0,11.0,56,0.00,,,0.00,Wunderground v.1.12,2013-07-04 18:33:00,
2013-07-04 14:38:00,92.1,73.1,30.02,WSW,247,2.0,4.0,54,0.00,,,0.00,Wunderground v.1.12,2013-07-04 18:38:00,
2013-07-04 14:43:00,92.5,71.7,30.02,WSW,239,2.0,6.0,51,0.00,,,0.00,Wunderground v.1.12,2013-07-04 18:43:00,
2013-07-04 14:49:00,91.2,71.7,30.02,WSW,242,3.0,3.0,53,0.00,,,0.00,Wunderground v.1.12,2013-07-04 18:49:00,
2013-07-04 14:54:00,91.6,72.6,30.02,WNW,296,3.0,4.0,54,0.00,,,0.00,Wunderground v.1.12,2013-07-04 18:54:00,
2013-07-04 15:00:00,91.6,72.6,30.02,West,270,3.0,3.0,54,0.00,,,0.00,Wunderground v.1.12,2013-07-04 19:00:00,
2013-07-04 15:05:00,91.4,72.4,30.02,NW,309,3.0,4.0,54,0.00,,,0.00,Wunderground v.1.12,2013-07-04 19:05:00,
2013-07-04 15:11:00,91.6,73.1,30.02,SSW,196,3.0,4.0,55,0.00,,,0.00,Wunderground v.1.12,2013-07-04 19:11:00,
2013-07-04 15:18:00,92.3,74.9,30.00,West,280,2.0,2.0,57,0.00,,,0.00,Wunderground v.1.12,2013-07-04 19:18:00,
2013-07-04 15:23:00,92.3,73.2,30.00,West,263,3.0,5.0,54,0.00,,,0.00,Wunderground v.1.12,2013-07-04 19:23:00,
2013-07-04 15:28:00,92.5,72.9,30.00,WNW,285,3.0,3.0,53,0.00,,,0.00,Wunderground v.1.12,2013-07-04 19:28:00,
2013-07-04 15:34:00,92.7,71.9,30.00,WSW,242,2.0,3.0,51,0.00,,,0.00,Wunderground v.1.12,2013-07-04 19:34:00,
2013-07-04 15:39:00,92.9,72.1,30.00,WNW,285,2.0,6.0,51,0.00,,,0.00,Wunderground v.1.12,2013-07-04 19:39:00,
2013-07-04 15:45:00,92.1,70.2,30.00,WSW,247,3.0,6.0,49,0.00,,,0.00,Wunderground v.1.12,2013-07-04 19:45:00,
2013-07-04 15:50:00,92.1,71.4,30.00,West,273,5.0,5.0,51,0.00,,,0.00,Wunderground v.1.12,2013-07-04 19:50:00,
2013-07-04 15:55:00,92.3,72.1,30.00,West,274,4.0,4.0,52,0.00,,,0.00,Wunderground v.1.12,2013-07-04 19:55:00,
2013-07-04 16:01:00,92.3,72.1,30.00,WSW,246,3.0,4.0,52,0.00,,,0.00,Wunderground v.1.12,2013-07-04 20:01:00,
2013-07-04 16:06:00,92.7,75.2,30.00,WNW,294,3.0,3.0,57,0.00,,,0.00,Wunderground v.1.12,2013-07-04 20:06:00,
2013-07-04 16:13:00,92.3,72.1,30.00,West,279,2.0,8.0,52,0.00,,,0.00,Wunderground v.1.12,2013-07-04 20:13:00,
2013-07-04 16:18:00,91.4,71.9,30.00,WSW,246,4.0,7.0,53,0.00,,,0.00,Wunderground v.1.12,2013-07-04 20:18:00,
2013-07-04 16:26:00,91.2,71.1,30.00,West,269,4.0,4.0,52,0.00,,,0.00,Wunderground v.1.12,2013-07-04 20:26:00,
2013-07-04 16:33:00,92.3,72.1,30.00,West,270,3.0,13.0,52,0.00,,,0.00,Wunderground v.1.12,2013-07-04 20:33:00,
2013-07-04 16:38:00,91.8,72.8,29.99,SE,124,3.0,4.0,54,0.00,,,0.00,Wunderground v.1.12,2013-07-04 20:38:00,
2013-07-04 16:43:00,92.3,72.7,29.99,West,278,3.0,9.0,53,0.00,,,0.00,Wunderground v.1.12,2013-07-04 20:43:00,
2013-07-04 16:48:00,91.8,71.1,29.99,West,273,3.0,8.0,51,0.00,,,0.00,Wunderground v.1.12,2013-07-04 20:48:00,
2013-07-04 16:54:00,91.4,70.7,29.99,West,267,5.0,6.0,51,0.00,,,0.00,Wunderground v.1.12,2013-07-04 20:54:00,
2013-07-04 17:00:00,91.4,71.3,29.99,NW,319,5.0,5.0,52,0.00,,,0.00,Wunderground v.1.12,2013-07-04 21:00:00,
2013-07-04 17:05:00,91.6,71.5,29.99,WSW,257,4.0,4.0,52,0.00,,,0.00,Wunderground v.1.12,2013-07-04 21:05:00,
2013-07-04 17:11:00,92.3,73.8,29.99,SSE,167,2.0,3.0,55,0.00,,,0.00,Wunderground v.1.12,2013-07-04 21:11:00,
2013-07-04 17:18:00,92.5,72.3,29.98,West,276,2.0,6.0,52,0.00,,,0.00,Wunderground v.1.12,2013-07-04 21:18:00,
2013-07-04 17:23:00,92.3,72.7,29.98,WNW,290,3.0,6.0,53,0.00,,,0.00,Wunderground v.1.12,2013-07-04 21:23:00,
2013-07-04 17:28:00,91.8,72.2,29.98,West,272,4.0,6.0,53,0.00,,,0.00,Wunderground v.1.12,2013-07-04 21:28:00,
2013-07-04 17:34:00,91.8,72.2,29.98,West,278,4.0,4.0,53,0.00,,,0.00,Wunderground v.1.12,2013-07-04 21:34:00,
2013-07-04 17:39:00,92.3,74.3,29.98,WNW,283,2.0,2.0,56,0.00,,,0.00,Wunderground v.1.12,2013-07-04 21:39:00,
2013-07-04 17:44:00,92.5,72.9,29.98,WNW,297,1.0,3.0,53,0.00,,,0.00,Wunderground v.1.12,2013-07-04 21:44:00,
2013-07-04 17:49:00,92.7,73.1,29.98,WNW,286,1.0,1.0,53,0.00,,,0.00,Wunderground v.1.12,2013-07-04 21:49:00,
2013-07-04 17:55:00,92.5,73.4,29.98,West,262,2.0,6.0,54,0.00,,,0.00,Wunderground v.1.12,2013-07-04 21:55:00,
2013-07-04 18:01:00,91.4,72.4,29.97,WNW,282,4.0,4.0,54,0.00,,,0.00,Wunderground v.1.12,2013-07-04 22:01:00,
2013-07-04 18:06:00,91.2,72.8,29.97,SW,235,3.0,4.0,55,0.00,,,0.00,Wunderground v.1.12,2013-07-04 22:06:00,
2013-07-04 18:13:00,91.8,74.4,29.97,South,185,1.0,5.0,57,0.00,,,0.00,Wunderground v.1.12,2013-07-04 22:13:00,
2013-07-04 18:18:00,91.4,72.4,29.97,SW,229,2.0,5.0,54,0.00,,,0.00,Wunderground v.1.12,2013-07-04 22:18:00,
2013-07-04 18:24:00,90.7,73.4,29.97,WNW,290,4.0,4.0,57,0.00,,,0.00,Wunderground v.1.12,2013-07-04 22:24:00,
2013-07-04 18:30:00,90.7,72.8,29.97,South,185,3.0,6.0,56,0.00,,,0.00,Wunderground v.1.12,2013-07-04 22:30:00,
2013-07-04 18:35:00,90.3,73.0,29.97,WSW,241,3.0,3.0,57,0.00,,,0.00,Wunderground v.1.12,2013-07-04 22:35:00,
2013-07-04 18:41:00,90.3,73.0,29.97,WSW,247,3.0,5.0,57,0.00,,,0.00,Wunderground v.1.12,2013-07-04 22:41:00,
2013-07-04 18:46:00,90.1,73.3,29.97,West,276,3.0,3.0,58,0.00,,,0.00,Wunderground v.1.12,2013-07-04 22:46:00,
2013-07-04 18:53:00,90.1,72.8,29.97,SSW,209,2.0,3.0,57,0.00,,,0.00,Wunderground v.1.12,2013-07-04 22:53:00,
2013-07-04 18:58:00,89.9,72.6,29.97,West,276,2.0,4.0,57,0.00,,,0.00,Wunderground v.1.12,2013-07-04 22:58:00,
2013-07-04 19:04:00,89.7,73.0,29.98,WNW,291,2.0,2.0,58,0.00,,,0.00,Wunderground v.1.12,2013-07-04 23:04:00,
2013-07-04 19:09:00,89.9,73.1,29.98,WNW,290,1.0,1.0,58,0.00,,,0.00,Wunderground v.1.12,2013-07-04 23:09:00,
2013-07-04 19:15:00,89.7,73.0,29.98,WNW,294,1.0,1.0,58,0.00,,,0.00,Wunderground v.1.12,2013-07-04 23:15:00,
2013-07-04 19:21:00,89.3,73.1,29.98,WNW,289,1.0,2.0,59,0.00,,,0.00,Wunderground v.1.12,2013-07-04 23:21:00,
2013-07-04 19:28:00,88.8,73.1,29.98,WNW,286,1.0,2.0,60,0.00,,,0.00,Wunderground v.1.12,2013-07-04 23:28:00,
2013-07-04 19:33:00,88.4,72.7,29.98,West,276,1.0,5.0,60,0.00,,,0.00,Wunderground v.1.12,2013-07-04 23:33:00,
2013-07-04 19:39:00,88.0,72.9,29.98,West,275,2.0,2.0,61,0.00,,,0.00,Wunderground v.1.12,2013-07-04 23:39:00,
2013-07-04 19:45:00,87.6,73.0,29.98,West,266,1.0,1.0,62,0.00,,,0.00,Wunderground v.1.12,2013-07-04 23:45:00,
2013-07-04 19:50:00,87.2,73.1,29.99,SSW,207,1.0,2.0,63,0.00,,,0.00,Wunderground v.1.12,2013-07-04 23:50:00,
2013-07-04 19:56:00,87.0,72.9,29.99,West,271,1.0,1.0,63,0.00,,,0.00,Wunderground v.1.12,2013-07-04 23:56:00,
2013-07-04 20:03:00,88.6,72.9,29.99,WNW,293,1.0,7.0,60,0.00,,,0.00,Wunderground v.1.12,2013-07-05 00:03:00,
2013-07-04 20:08:00,85.7,72.1,29.98,West,268,1.0,2.0,64,0.00,,,0.00,Wunderground v.1.12,2013-07-05 00:08:00,
2013-07-04 20:13:00,85.3,72.6,29.98,West,269,1.0,4.0,66,0.00,,,0.00,Wunderground v.1.12,2013-07-05 00:13:00,
2013-07-04 20:18:00,85.1,72.5,29.99,West,269,1.0,1.0,66,0.00,,,0.00,Wunderground v.1.12,2013-07-05 00:18:00,
2013-07-04 20:24:00,84.7,72.5,29.99,West,269,0.0,1.0,67,0.00,,,0.00,Wunderground v.1.12,2013-07-05 00:24:00,
2013-07-04 20:29:00,84.5,72.3,29.99,West,269,0.0,0.0,67,0.00,,,0.00,Wunderground v.1.12,2013-07-05 00:29:00,
2013-07-04 20:35:00,84.3,72.1,29.99,West,269,0.0,0.0,67,0.00,,,0.00,Wunderground v.1.12,2013-07-05 00:35:00,
2013-07-04 20:40:00,84.1,72.4,29.99,West,269,0.0,0.0,68,0.00,,,0.00,Wunderground v.1.12,2013-07-05 00:40:00,
2013-07-04 20:45:00,84.0,72.3,29.99,West,269,0.0,0.0,68,0.00,,,0.00,Wunderground v.1.12,2013-07-05 00:45:00,
2013-07-04 20:51:00,83.8,72.1,29.99,West,269,0.0,1.0,68,0.00,,,0.00,Wunderground v.1.12,2013-07-05 00:51:00,
2013-07-04 20:58:00,83.6,72.3,29.99,West,269,0.0,1.0,69,0.00,,,0.00,Wunderground v.1.12,2013-07-05 00:58:00,
2013-07-04 21:03:00,84.3,72.1,29.99,West,270,1.0,4.0,67,0.00,,,0.00,Wunderground v.1.12,2013-07-05 01:03:00,
2013-07-04 21:08:00,83.0,72.2,30.00,West,267,1.0,1.0,70,0.00,,,0.00,Wunderground v.1.12,2013-07-05 01:08:00,
2013-07-04 21:13:00,82.8,72.4,30.00,West,266,1.0,3.0,71,0.00,,,0.00,Wunderground v.1.12,2013-07-05 01:13:00,
2013-07-04 21:19:00,82.6,72.2,30.00,West,266,1.0,2.0,71,0.00,,,0.00,Wunderground v.1.12,2013-07-05 01:19:00,
2013-07-04 21:24:00,82.8,72.4,30.00,West,265,1.0,1.0,71,0.00,,,0.00,Wunderground v.1.12,2013-07-05 01:24:00,
2013-07-04 21:30:00,82.6,72.2,30.00,West,265,0.0,1.0,71,0.00,,,0.00,Wunderground v.1.12,2013-07-05 01:30:00,
2013-07-04 21:35:00,82.4,72.0,30.00,West,265,0.0,0.0,71,0.00,,,0.00,Wunderground v.1.12,2013-07-05 01:35:00,
2013-07-04 21:40:00,82.4,72.5,30.00,West,265,0.0,1.0,72,0.00,,,0.00,Wunderground v.1.12,2013-07-05 01:40:00,
2013-07-04 21:46:00,82.2,72.3,30.00,WSW,244,1.0,2.0,72,0.00,,,0.00,Wunderground v.1.12,2013-07-05 01:46:00,
2013-07-04 21:53:00,82.0,72.5,30.00,WSW,244,1.0,2.0,73,0.00,,,0.00,Wunderground v.1.12,2013-07-05 01:53:00,
2013-07-04 21:58:00,82.0,72.1,30.00,West,261,1.0,5.0,72,0.00,,,0.00,Wunderground v.1.12,2013-07-05 01:58:00,
2013-07-04 22:03:00,82.2,72.3,30.00,WNW,286,1.0,1.0,72,0.00,,,0.00,Wunderground v.1.12,2013-07-05 02:03:00,
2013-07-04 22:09:00,82.4,72.0,30.00,WNW,284,2.0,4.0,71,0.00,,,0.00,Wunderground v.1.12,2013-07-05 02:09:00,
2013-07-04 22:14:00,82.4,72.0,30.00,West,275,1.0,4.0,71,0.00,,,0.00,Wunderground v.1.12,2013-07-05 02:14:00,
2013-07-04 22:19:00,82.2,71.9,30.00,WSW,249,2.0,2.0,71,0.00,,,0.00,Wunderground v.1.12,2013-07-05 02:19:00,
2013-07-04 22:25:00,82.2,71.9,30.00,West,281,1.0,5.0,71,0.00,,,0.00,Wunderground v.1.12,2013-07-05 02:25:00,
2013-07-04 22:30:00,82.2,71.9,30.00,West,276,2.0,2.0,71,0.00,,,0.00,Wunderground v.1.12,2013-07-05 02:30:00,
2013-07-04 22:35:00,82.0,71.7,30.00,WNW,283,2.0,3.0,71,0.00,,,0.00,Wunderground v.1.12,2013-07-05 02:35:00,
2013-07-04 22:40:00,82.0,72.1,30.00,WNW,300,1.0,2.0,72,0.00,,,0.00,Wunderground v.1.12,2013-07-05 02:40:00,
2013-07-04 22:46:00,81.8,71.9,30.00,WSW,242,2.0,9.0,72,0.00,,,0.00,Wunderground v.1.12,2013-07-05 02:46:00,
2013-07-04 22:53:00,81.8,71.9,30.00,WSW,246,3.0,5.0,72,0.00,,,0.00,Wunderground v.1.12,2013-07-05 02:53:00,
2013-07-04 22:58:00,81.8,71.9,30.00,WSW,242,3.0,3.0,72,0.00,,,0.00,Wunderground v.1.12,2013-07-05 02:58:00,
2013-07-04 23:04:00,81.6,71.7,30.00,WSW,238,3.0,3.0,72,0.00,,,0.00,Wunderground v.1.12,2013-07-05 03:04:00,
2013-07-04 23:09:00,81.8,71.9,30.00,WSW,250,4.0,4.0,72,0.00,,,0.00,Wunderground v.1.12,2013-07-05 03:09:00,
2013-07-04 23:15:00,82.0,72.1,30.00,WSW,240,4.0,4.0,72,0.00,,,0.00,Wunderground v.1.12,2013-07-05 03:15:00,
2013-07-04 23:21:00,81.6,71.7,30.01,WNW,282,4.0,5.0,72,0.00,,,0.00,Wunderground v.1.12,2013-07-05 03:21:00,
2013-07-04 23:28:00,81.4,71.9,30.01,WNW,288,3.0,4.0,73,0.00,,,0.00,Wunderground v.1.12,2013-07-05 03:28:00,
2013-07-04 23:33:00,81.4,71.9,30.01,West,270,3.0,11.0,73,0.00,,,0.00,Wunderground v.1.12,2013-07-05 03:33:00,
2013-07-04 23:38:00,81.1,71.6,30.01,West,270,2.0,5.0,73,0.00,,,0.00,Wunderground v.1.12,2013-07-05 03:38:00,
2013-07-04 23:44:00,81.1,72.0,30.01,West,270,3.0,3.0,74,0.00,,,0.00,Wunderground v.1.12,2013-07-05 03:44:00,
2013-07-04 23:50:00,80.9,71.8,30.01,West,271,3.0,7.0,74,0.00,,,0.00,Wunderground v.1.12,2013-07-05 03:50:00,
2013-07-04 23:55:00,80.9,72.2,30.01,West,279,3.0,5.0,75,0.00,,,0.00,Wunderground v.1.12,2013-07-05 03:55:00,